TimeMDT,TemperatureF,Dew PointF,Humidity,Sea Level PressureIn,VisibilityMPH,Wind Direction,Wind SpeedMPH,Gust SpeedMPH,PrecipitationIn,Events,Conditions,WindDirDegrees,DateUTC
12:53 AM,30.9,23.0,72,30.11,10.0,NNE,3.5,-,N/A,,Clear,20,2013-10-20 06:53:00
1:53 AM,28.9,23.0,78,30.09,10.0,NNE,5.8,-,N/A,,Clear,30,2013-10-20 07:53:00
2:53 AM,30.0,21.9,72,30.08,10.0,NNE,3.5,-,N/A,,Clear,20,2013-10-20 08:53:00
3:53 AM,27.0,21.0,78,30.07,10.0,North,3.5,-,N/A,,Clear,10,2013-10-20 09:53:00
4:53 AM,26.1,21.0,81,30.07,10.0,NNE,5.8,-,N/A,,Clear,20,2013-10-20 10:53:00
5:53 AM,24.1,19.0,81,30.08,10.0,Calm,Calm,-,N/A,,Clear,0,2013-10-20 11:53:00
6:53 AM,24.1,19.9,84,30.12,10.0,Calm,Calm,-,N/A,,Clear,0,2013-10-20 12:53:00
7:53 AM,24.1,21.0,88,30.13,10.0,ENE,4.6,-,N/A,,Clear,70,2013-10-20 13:53:00
8:53 AM,32.0,23.0,69,30.14,10.0,Calm,Calm,-,N/A,,Clear,0,2013-10-20 14:53:00
9:53 AM,39.0,25.0,57,30.11,10.0,Calm,Calm,-,N/A,,Clear,0,2013-10-20 15:53:00
10:53 AM,45.0,25.0,46,30.08,10.0,Calm,Calm,-,N/A,,Clear,0,2013-10-20 16:53:00
11:53 AM,52.0,24.1,34,30.01,10.0,Variable,3.5,-,N/A,,Clear,0,2013-10-20 17:53:00
12:53 PM,57.0,24.1,28,29.96,10.0,SSW,11.5,-,N/A,,Clear,200,2013-10-20 18:53:00
1:53 PM,61.0,21.0,21,29.91,10.0,SW,18.4,26.5,N/A,,Clear,230,2013-10-20 19:53:00
2:53 PM,61.0,19.9,21,29.88,10.0,West,21.9,28.8,N/A,,Clear,260,2013-10-20 20:53:00
3:53 PM,59.0,19.0,21,29.90,10.0,West,19.6,26.5,N/A,,Clear,270,2013-10-20 21:53:00
4:53 PM,60.1,17.1,19,29.90,10.0,WSW,19.6,28.8,N/A,,Clear,250,2013-10-20 22:53:00
5:53 PM,55.9,18.0,23,29.94,10.0,West,17.3,25.3,N/A,,Clear,270,2013-10-20 23:53:00
6:53 PM,54.0,17.1,23,29.97,10.0,West,17.3,24.2,N/A,,Clear,280,2013-10-21 00:53:00
7:53 PM,52.0,19.0,27,30.00,10.0,WNW,11.5,-,N/A,,Clear,290,2013-10-21 01:53:00
8:53 PM,50.0,19.0,29,29.99,10.0,NW,6.9,-,N/A,,Clear,320,2013-10-21 02:53:00
9:53 PM,48.9,18.0,29,29.97,10.0,WNW,12.7,-,N/A,,Clear,290,2013-10-21 03:53:00
10:53 PM,45.0,19.0,36,29.98,10.0,West,5.8,-,N/A,,Clear,260,2013-10-21 04:53:00
11:53 PM,45.0,18.0,34,29.95,10.0,Calm,Calm,-,N/A,,Clear,0,2013-10-21 05:53:00